Home > Weather > Jan Mayen > Past weeks

Flag for Norway Past Weather in Jan Mayen, Jan Mayen, Norway — Yesterday and Last 2 Weeks

Now
47 °F

Cool.


Feels Like: 46 °F
Forecast: 45 / 47 °F
Wind: 3 mph from Southwest

Location: Jan Mayen

Current Time: Aug 24, 2016 at 8:20:01 PM

Latest Report: Aug 24, 2016 at 7:00 PM


Visibility: N/A

Pressure: 30.02 "Hg

Humidity: 95%

Dew Point: 46 °F

Location of Jan MayenLocation

Past Weather in Jan Mayen — Graph

°F

Jan Mayen Temperature Yesterday

Maximum temperature yesterday: 48 °F (at 9:00 PM)
Minimum temperature yesterday: 41 °F (at 1:00 AM)
Average temperature yesterday: 45 °F

High & Low Weather Summary for the Past Weeks

 TemperatureHumidityPressure
High54 °F (Aug 20, 5:00 PM)97% (Aug 17, 7:00 PM)30.27 "Hg (Aug 17, 7:00 PM)
Low39 °F (Aug 12, 3:00 AM)59% (Aug 20, 4:00 PM)29.65 "Hg (Aug 14, 3:00 PM)
Average46 °F89%29.92 "Hg
* Reported Aug 9 8:00 PM — Aug 24 7:00 PM, Jan Mayen, Weather by CustomWeather, © 2016

Note: Actual official high and low records may vary slightly from our data, if they occured in-between our weather recording intervals... More about our weather records

Advertising

Jan Mayen Weather History for the Previous 24 Hours

Scroll right to see more
 ConditionsComfort  
Time TempWeatherWind HumidityBarometerVisibility
7:00 PM
Wed, Aug 24
47 °FCool.3 mph95%30.02 "HgN/A
6:00 PM47 °FCool.3 mph96%30.03 "HgN/A
5:00 PM47 °FDrizzle. Dense fog.3 mph96%30.04 "Hg0 mi
4:00 PM48 °FCool.3 mph96%30.05 "HgN/A
3:00 PM48 °FCool.5 mph96%30.06 "HgN/A
2:00 PM48 °FDrizzle. Dense fog.5 mph96%30.08 "Hg0 mi
1:00 PM48 °FCool.5 mph95%30.09 "HgN/A
12:00 PM48 °FCool.5 mph95%30.09 "HgN/A
11:00 AM48 °FDrizzle. Dense fog.5 mph95%30.11 "Hg1 mi
10:00 AM47 °FCool.5 mph95%30.11 "HgN/A
9:00 AM48 °FCool.5 mph95%30.12 "HgN/A
8:00 AM47 °FLight rain. Dense fog.No wind95%30.13 "Hg1 mi
7:00 AM47 °FCool.1 mph95%30.15 "HgN/A
6:00 AM47 °FCool.3 mph95%30.16 "HgN/A
5:00 AM47 °FCool.5 mph95%30.17 "HgN/A
4:00 AM47 °FCool.3 mph95%30.18 "HgN/A
3:00 AM47 °FCool.7 mph95%30.19 "HgN/A
2:00 AM47 °FDrizzle. Low clouds.6 mph95%30.20 "Hg1 mi
1:00 AM47 °FCool.6 mph95%30.21 "HgN/A
12:00 AM47 °FCool.5 mph95%30.23 "HgN/A
11:00 PM
Tue, Aug 23
47 °FCool.5 mph95%30.23 "HgN/A
10:00 PM47 °FCool.5 mph95%30.23 "HgN/A
9:00 PM48 °FCool.2 mph95%30.24 "HgN/A
8:00 PM47 °FDrizzle. Dense fog.1 mph95%30.24 "Hg1 mi
Weather by CustomWeather, © 2016

See weather overviewHow to use our weather pages